,

(GMT )
Al Udeid

Weather History for KQIR - March, 2014

Change the Weather History Date:

Sunday, March 2, 2014

  Actual Average Record
Temperature  
Mean Temperature 68 °F -  
Max Temperature 78 °F - - ()
Min Temperature 58 °F - - ()
Cooling Degree Days 3    
Growing Degree Days 18 (Base 50)    
Moisture  
Dew Point 47 °F    
Average Humidity 50    
Maximum Humidity 81    
Minimum Humidity 23    
Precipitation  
Precipitation 0.00 in - - ()
Sea Level Pressure  
Sea Level Pressure 30.01 in    
Wind  
Wind Speed 13 mph ()    
Max Wind Speed 24 mph    
Max Gust Speed 26 mph    
Visibility 6.0 miles    
Events      
Averages and records for this station are not official NWS values.
T = Trace of Precipitation, MM = Missing Value Source: Averaged Metar Reports

Daily Weather History Graph

Daily Weather History Graph

Search for Another Location

Airport or City:

Trip Planner

Search our weather history database for the weather conditions in past years. The results will help you decide how hot, cold, wet, or windy it might be!

Date:

Astronomy

Mar. 02, 2014 Rise Set
Actual Time 5:56 AM +03 5:37 PM +03
Civil Twilight 5:34 AM +03 6:00 PM +03
Nautical Twilight 5:07 AM +03 6:26 PM +03
Astronomical Twilight 4:40 AM +03 6:53 PM +03
Moon 6:23 AM +03 (3/2) 6:53 PM +03 (3/2)
Length of Visible Light 12h 26m
Length of Day
11h 40m
New Moon, 2% of the Moon is Illuminated
Mar 2
New Moon
Mar 8
First Quarter
Mar 16
Full
Mar 24
Last Quarter
Mar 30
New

Hourly Weather History & Observations

Time (+03) Temp. Dew Point Humidity Pressure Visibility Wind Dir Wind Speed Gust Speed Precip Events Conditions
12:58 AM 65.5 °F 52.3 °F 62% 30.01 in 6.2 mi NNW 16.1 mph - N/A   Clear
1:58 AM 64.8 °F 54.9 °F 70% 29.99 in 6.2 mi NNW 19.6 mph - N/A   Clear
2:58 AM 63.1 °F 55.2 °F 75% 29.99 in 6.2 mi NNW 12.7 mph - N/A   Clear
3:58 AM 63.0 °F 55.6 °F 77% 30.00 in 6.2 mi NNW 11.5 mph - N/A   Clear
4:58 AM 61.7 °F 54.5 °F 77% 30.03 in 6.2 mi NNW 11.5 mph - N/A   Mostly Cloudy
5:58 AM 61.3 °F 55.6 °F 81% 30.03 in 6.2 mi NW 10.4 mph - N/A   Scattered Clouds
6:58 AM 62.8 °F 55.9 °F 78% 30.05 in 6.2 mi NW 10.4 mph - N/A   Clear
7:58 AM 65.7 °F 56.8 °F 73% 30.07 in 6.2 mi NW 6.9 mph - N/A   Clear
8:58 AM 69.6 °F 51.3 °F 52% 30.08 in 6.2 mi NNW 11.5 mph - N/A   Clear
9:58 AM 73.4 °F 45.9 °F 37% 30.08 in 6.2 mi NNW 16.1 mph - N/A   Clear
10:58 AM 76.1 °F 43.2 °F 31% 30.07 in 5.6 mi NNW 18.4 mph 23.0 mph N/A   Haze
11:58 AM 77.9 °F 39.4 °F 25% 30.03 in 5.6 mi NNW 20.7 mph - N/A   Widespread Dust
12:58 PM 78.3 °F 39.4 °F 25% 30.01 in 5.6 mi NNW 24.2 mph - N/A   Widespread Dust
1:58 PM 77.0 °F 42.8 °F 29% 29.99 in 5.6 mi NNW 18.4 mph 26.5 mph N/A   Widespread Dust
2:58 PM 77.5 °F 43.7 °F 30% 29.98 in 5.6 mi NNW 19.6 mph - N/A   Widespread Dust
3:58 PM 76.6 °F 36.7 °F 24% 29.98 in 5.6 mi NNW 23.0 mph - N/A   Widespread Dust
4:58 PM 74.7 °F 34.9 °F 23% 29.97 in 5.6 mi NNW 24.2 mph - N/A   Widespread Dust
5:58 PM 71.4 °F 38.8 °F 31% 29.98 in 6.2 mi NNW 15.0 mph - N/A   Clear
6:58 PM 68.4 °F 40.8 °F 37% 30.00 in 6.2 mi NNW 10.4 mph - N/A   Clear
7:58 PM 65.5 °F 43.7 °F 45% 30.02 in 6.2 mi NNW 8.1 mph - N/A   Clear
8:58 PM 63.9 °F 45.7 °F 52% 30.01 in 6.2 mi NW 9.2 mph - N/A   Clear
9:58 PM 61.9 °F 45.3 °F 55% 30.00 in 6.2 mi NW 6.9 mph - N/A   Clear
10:58 PM 58.8 °F 44.6 °F 59% 30.00 in 6.2 mi West 5.8 mph - N/A   Clear
11:58 PM 58.6 °F 44.2 °F 59% 29.98 in 6.2 mi WNW 6.9 mph - N/A   Clear